Home   Weather   Greenwich   Past weeks
Flag for USA

Past Weather in Greenwich, Illinois, USA — Yesterday and Last 2 Weeks

Now
75 °F

Cloudy.


Feels Like: 73 °F
Forecast: 80 / 74 °F
Wind: 8 mph from South

Location: Chicago Midway Airport

Current Time: Jul 16, 2019 at 9:51:11 am

Latest Report: Jul 16, 2019 at 9:06 am


Visibility: 10 mi

Pressure: 29.93 "Hg

Humidity: 94%

Dew Point: 73 °F

Location of GreenwichLocation

Past Weather in Greenwich — Graph

°F

Greenwich Temperature Yesterday

Maximum temperature yesterday: 91 °F (at 1:53 pm)
Minimum temperature yesterday: 75 °F (at 4:53 am)
Average temperature yesterday: 83 °F

High & Low Weather Summary for the Past Weeks

 TemperatureHumidityPressure
High95 °F (Jul 10, 2:53 pm)100% (Jul 2, 8:25 pm)30.09 "Hg (Jul 2, 8:25 pm)
Low62 °F (Jul 12, 5:53 am)34% (Jul 9, 3:53 pm)29.77 "Hg (Jul 2, 5:53 pm)
Average79 °F65%29.94 "Hg
* Reported Jul 1 7:53 am — Jul 16 7:53 am, Greenwich. Weather by CustomWeather, © 2019

Note: Actual official high and low records may vary slightly from our data, if they occured in-between our weather recording intervals... More about our weather records

Advertising

Greenwich Weather History for the Previous 24 Hours

Scroll right to see more
 ConditionsComfort  
Time TempWeatherWind HumidityBarometerVisibility
7:53 am
Tue, Jul 16
74 °FCloudy.9 mph91%29.90 "Hg10 mi
6:53 am73 °FPartly sunny.5 mph94%29.90 "Hg10 mi
5:53 am72 °FBroken clouds.7 mph97%29.89 "Hg9 mi
4:53 am72 °FPartly cloudy.6 mph97%29.90 "Hg9 mi
4:42 am73 °FOvercast.7 mph94%29.94 "Hg8 mi
3:53 am72 °FLight rain. Mostly cloudy.7 mph97%29.92 "Hg8 mi
3:11 am73 °FLight rain. Mostly cloudy.6 mph94%29.96 "Hg8 mi
2:53 am73 °FLight rain. Mostly cloudy.8 mph90%29.93 "Hg8 mi
2:37 am73 °FOvercast.8 mph88%29.97 "Hg10 mi
1:53 am76 °FOvercast.9 mph74%29.94 "Hg10 mi
12:53 am79 °FPassing clouds.7 mph58%29.95 "Hg10 mi
11:53 pm
Mon, Jul 15
79 °FPassing clouds.7 mph58%29.97 "Hg10 mi
10:53 pm79 °FPassing clouds.7 mph56%29.96 "Hg10 mi
9:53 pm81 °FPassing clouds.14 mph53%29.96 "Hg10 mi
8:53 pm81 °FPassing clouds.14 mph54%29.95 "Hg10 mi
7:53 pm84 °FScattered clouds.17 mph49%29.96 "Hg10 mi
6:53 pm86 °FScattered clouds.20 mph49%29.94 "Hg10 mi
5:53 pm89 °FScattered clouds.20 mph46%29.93 "Hg10 mi
4:53 pm91 °FScattered clouds.18 mph44%29.93 "Hg10 mi
3:53 pm91 °FScattered clouds.18 mph42%29.95 "Hg10 mi
2:53 pm91 °FScattered clouds.22 mph44%29.96 "Hg10 mi
1:53 pm91 °FPassing clouds.18 mph42%29.98 "Hg10 mi
12:53 pm89 °FPassing clouds.17 mph46%30.00 "Hg10 mi
11:53 am87 °FPassing clouds.16 mph46%30.01 "Hg10 mi
10:53 am85 °FPassing clouds.13 mph53%30.03 "Hg10 mi
9:53 am84 °FPassing clouds.14 mph55%30.05 "Hg10 mi
Weather by CustomWeather, © 2019

See weather overview

LIVE PARTIAL LUNAR ECLIPSE – Watch the eclipse as it happens